Wind_Speed
10 10 10 10 10 10 10 10 11 10 10 10 10 9 8 7 4 4 4 10 10 8 8 7 7 7 7 8 8 8 8 7 5
10 10 10 10 10 10 10 10 10 10 10 10 9 9 9 7 4 4 3 6 8 8 9 8 8 8 8 8 8 9 8 8 6
10 9 10 10 10 10 10 10 9 9 9 9 9 8 7 7 5 4 4 5 8 7 7 7 8 8 6 6 8 8 7 7 7
9 9 9 9 9 10 10 10 9 9 9 9 9 8 8 7 5 4 5 7 8 6 6 6 6 6 5 5 6 6 5 4 5
9 8 9 9 10 10 11 11 11 10 12 11 9 9 9 6 5 4 6 9 8 6 6 7 7 9 8 7 7 3 2 4 5
6 8 9 9 10 11 11 12 12 12 12 13 11 10 6 5 5 4 6 9 7 8 7 7 9 8 8 7 5 5 5 6 6
6 8 9 10 9 12 12 14 14 11 8 8 10 8 7 5 5 5 6 9 8 7 7 7 8 8 12 2 2 3 4 6 8
4 4 4 5 8 6 8 8 8 9 9 8 8 8 7 6 5 5 7 8 8 8 6 8 7 9 10 9 7 7 6 6 8
4 3 4 4 6 6 7 7 8 8 8 8 8 8 6 5 4 5 8 7 9 9 8 7 8 9 9 9 7 7 7 9 8
3 3 3 4 5 7 7 8 8 8 8 8 8 7 6 6 4 4 8 7 7 8 8 8 8 8 8 8 8 9 9 9 9
3 3 3 4 5 6 6 7 8 8 8 8 8 7 6 6 4 3 5 8 7 6 7 7 8 9 9 8 8 9 10 11 11
2 2 2 3 5 6 6 7 7 7 8 8 7 7 6 4 2 2 2 5 7 8 5 6 8 9 9 10 10 11 11 12 13
2 1 2 3 4 5 6 6 7 7 7 8 7 6 5 4 2 2 2 3 3 7 8 8 8 8 9 10 10 11 11 12 13
2 0 1 2 4 5 6 6 7 8 8 8 6 5 4 3 2 2 2 3 3 4 8 11 11 11 11 10 11 12 13 14 14
3 1 1 2 3 4 6 6 7 6 9 8 5 3 2 3 3 4 4 3 4 5 5 7 8 13 13 13 13 13 12 13 15
4 3 2 2 3 4 5 5 6 6 10 7 8 3 2 2 3 5 4 3 3 4 6 7 10 11 12 12 12 15 14 13 12
4 3 2 1 2 3 4 5 5 4 9 7 8 3 3 2 4 3 3 3 6 8 11 12 13 12 13 11 12 8 11 12 12
5 3 3 1 1 1 2 3 5 5 5 7 5 3 3 10 2 1 4 5 9 12 12 11 13 12 11 9 5 10 12 13 14
4 5 3 2 1 1 1 2 2 3 4 2 4 3 4 3 4 8 11 6 12 10 12 12 11 12 8 8 8 11 11 14 15
4 4 4 3 2 1 0 1 1 1 2 3 4 3 3 3 3 5 11 15 14 15 12 14 13 10 10 7 8 11 13 16 16
Wind_Direction
76 68 64 59 54 51 43 36 34 31 29 21 16 14 26 38 11 23 35 49 41 53 60 63 47 35 25 18 12 359 345 324 297
72 67 64 59 52 45 40 35 34 29 25 19 11 20 38 43 28 31 29 32 24 26 30 30 21 13 8 8 8 8 1 351 334
76 67 59 53 47 40 35 29 24 21 18 14 11 17 36 30 28 24 26 22 12 7 10 9 6 359 354 354 349 339 342 357 5
79 68 59 52 47 41 36 29 24 20 15 12 13 19 44 32 16 9 19 14 2 1 8 17 21 18 2 345 340 344 355 347 22
80 52 59 52 48 42 37 32 28 29 24 17 18 41 22 13 13 17 9 11 9 24 21 9 1 348 338 339 340 352 39 32 14
66 66 59 51 47 42 37 33 35 35 11 11 29 33 11 9 10 15 7 12 6 0 9 355 352 346 340 325 336 12 21 20 2
88 60 51 43 37 28 26 24 27 21 15 4 12 13 6 9 7 356 355 10 4 354 352 355 354 1 356 6 10 11 12 10 5
87 55 38 27 27 19 17 14 12 11 9 4 6 4 6 2 1 320 345 12 7 358 1 5 7 18 19 35 50 45 25 7 1
98 71 45 28 19 10 7 6 2 1 1 0 360 355 353 350 350 327 344 1 13 11 5 358 359 5 10 21 25 19 8 357 350
99 69 45 28 14 4 0 356 352 353 352 350 348 347 345 343 342 336 337 351 11 18 13 9 2 359 356 351 349 347 342 336 337
110 73 43 20 9 358 350 347 345 346 345 344 345 346 345 342 336 334 324 344 350 10 14 8 2 358 354 346 341 335 330 330 332
111 75 36 15 1 353 345 344 344 346 348 347 349 349 345 344 322 323 318 336 344 351 347 7 5 1 357 350 343 337 333 332 328
129 79 26 12 358 348 344 345 348 350 352 347 348 349 353 356 10 343 324 328 329 334 338 332 335 337 346 344 338 331 326 325 324
170 132 24 7 355 348 347 351 351 350 350 342 345 356 17 47 41 16 348 326 328 319 321 333 330 327 321 326 328 326 322 318 315
192 213 282 359 350 350 354 352 355 352 344 334 332 347 28 43 35 5 342 335 329 325 326 323 318 319 320 319 321 319 313 314 311
210 223 252 340 359 3 1 354 350 358 351 322 341 230 192 1 4 349 345 341 338 334 333 323 315 311 311 314 313 321 320 312 306
215 222 244 304 355 4 8 6 347 12 12 350 299 346 171 138 336 26 6 339 325 322 322 314 313 308 307 303 317 337 339 336 328
210 213 221 238 14 344 3 4 11 358 18 25 4 325 355 342 74 18 327 323 323 321 319 321 318 313 313 313 307 319 336 335 329
216 207 209 211 222 266 352 13 14 354 359 352 21 7 349 340 325 349 337 335 318 310 318 315 312 305 303 297 301 308 326 331 325
206 205 212 206 213 228 169 342 324 347 352 1 350 344 317 288 277 302 318 313 321 314 316 312 308 300 299 289 279 305 319 318 314
Height
819 819 818 818 818 817 817 816 815 815 814 813 812 811 810 810 811 811 811 810 809 810 810 810 810 810 810 809 809 808 808 807 807
820 820 819 819 819 818 818 817 816 815 814 813 812 811 811 810 812 812 812 811 812 812 811 811 811 811 810 810 809 809 808 808 807
821 821 820 820 819 819 818 817 816 815 815 813 813 812 811 811 812 813 813 813 813 813 813 812 812 812 811 811 810 809 808 807 806
822 821 821 821 820 819 818 817 816 816 815 814 813 812 812 812 813 813 812 812 814 813 813 812 812 811 811 810 809 808 808 807 806
822 823 822 821 820 820 819 818 817 816 816 815 814 813 813 814 814 814 812 813 814 813 813 813 812 812 811 810 809 807 806 806 806
824 823 822 822 821 820 820 819 818 817 816 816 815 815 815 815 815 814 814 814 814 814 813 813 812 811 810 810 809 809 808 807 805
824 823 823 823 822 821 820 820 819 819 819 818 817 817 816 816 816 814 815 815 815 815 814 813 812 811 810 808 808 808 808 808 806
826 826 826 825 824 824 823 822 822 821 820 819 818 818 817 817 817 815 816 816 816 816 815 814 813 812 811 809 809 808 808 807 806
826 826 826 826 825 825 824 823 822 821 820 819 818 818 817 816 816 814 815 815 816 816 816 815 814 813 812 811 809 809 808 807 806
826 827 827 827 826 826 825 824 823 821 820 819 818 817 816 816 816 816 814 815 815 816 816 815 815 814 813 812 811 810 809 807 806
826 827 827 827 826 826 825 824 823 821 820 819 818 817 816 816 816 816 814 814 814 814 815 814 814 813 813 812 811 810 809 807 805
826 826 827 826 826 826 826 824 823 821 820 819 817 816 815 815 815 815 815 814 814 813 813 814 813 813 812 812 811 810 809 808 806
826 827 827 826 826 826 825 824 823 821 820 818 817 816 815 814 814 815 815 815 815 813 813 812 812 811 811 811 810 809 807 806 805
826 826 826 826 825 826 825 824 823 822 820 818 817 816 815 814 814 815 815 815 815 814 813 812 811 810 809 808 807 807 806 805 803
825 826 826 825 825 825 825 824 823 822 820 818 816 816 815 815 815 815 815 815 815 815 813 812 811 809 807 806 807 804 802 801 802
824 825 826 825 825 825 825 824 824 822 820 817 815 814 814 815 815 815 814 814 814 814 813 811 810 809 807 805 803 802 801 798 796
824 825 825 825 825 825 825 824 824 822 822 820 816 813 813 813 813 814 814 815 814 814 813 812 810 808 805 803 801 800 800 798 796
822 823 824 824 824 825 824 825 825 824 823 822 822 817 814 815 813 813 814 814 813 812 811 810 809 807 805 803 801 798 797 797 795
821 822 823 823 824 825 825 825 825 824 824 823 823 823 823 820 816 814 813 813 812 810 809 807 805 804 802 800 798 796 795 795 793
820 821 822 823 824 824 824 824 825 825 825 824 824 824 823 823 822 817 814 812 811 809 807 805 804 802 800 799 796 794 792 791 789